Hourly Weather Roundup
Issued by NWS Central Illinois

Home | Current Version | Previous Version | Text Only | Print | Product List | Glossary On
Versions: 1 2 3 4 5 6 7 8 9 10 11 12 13 14 15 16 17 18 19 20 21 22 23 24 25 26 27 28 29 30 31 32 33 34 35 36 37 38 39 40 41 42 43 44 45 46 47 48 49 50
000
NZUS43 KILX 031710
HWRILX

AREA WEATHER ROUNDUP
NATIONAL WEATHER SERVICE, LINCOLN IL
1200 PM CDT FRI JUL 03 2015


CITY           SKY/WX    TMP DP  RH WIND       PRES   REMARKS
BLOOMINGTON    MOSUNNY   72  64  75 NE8       29.97R
CHAMPAIGN      PTSUNNY   74  64  71 NE7       29.94R
DANVILLE       FAIR      73  65  74 NE7       29.91F
DECATUR        PTSUNNY   74  65  73 N7        29.94R
EFFINGHAM      CLOUDY    76  64  65 N3        29.93S
FLORA          MOSUNNY   76  68  76 N5        29.91S
GALESBURG      SUNNY     73  62  68 NE6       29.97S
JACKSONVILLE   PTSUNNY   74  66  76 N12       29.95S
LACON          SUNNY     75  58  55 NE3       29.96R
LAWRENCEVILLE  CLOUDY    76  69  79 N5        29.90R
LITCHFIELD     MOSUNNY   74  65  72 NE7       29.93F
$$


CITY           SKY/WX    TMP DP  RH WIND       PRES   REMARKS
LINCOLN        PTSUNNY   73  63  72 N5        29.95S
MACOMB         SUNNY     73  63  71 N3        29.98S
MATTOON        CLOUDY    75  67  76 N8        29.92R
MT CARMEL AP   MOSUNNY   79  68  69 NE6       29.89S HX  81
OLNEY-NOBLE AP MOSUNNY   75  68  78 N3        29.91S
PARIS          MOSUNNY   73  66  78 NE7       29.93R
PEORIA         SUNNY     76  61  59 SE3       29.96S
PONTIAC        PTSUNNY   73  61  64 NE6       29.97S
RANTOUL        CLOUDY    75  65  69 NE7       29.94S
ROBINSON       CLOUDY    74  67  78 NE3       29.91S
SPRINGFIELD    CLOUDY    72  63  73 N7        29.95R
TAYLORVILLE    CLOUDY    70  64  83 N6        29.94S
$$

...REGIONAL REPORTS...


CITY           SKY/WX    TMP DP  RH WIND       PRES   REMARKS
CHICAGO O`HARE CLOUDY    73  54  51 SE6       29.97S
KANKAKEE       MOSUNNY   74  57  56 E8        29.96S
MOLINE         SUNNY     74  59  59 N3        29.97S
MOUNT STERLING NOT AVBL
MOUNT VERNON   PTSUNNY   79  66  65 W5        29.91S HX  81
PITTSFIELD     MOSUNNY   75  64  67 N6        29.96S
QUINCY         SUNNY     75  63  66 N10       29.96S
ROCKFORD       PTSUNNY   74  57  55 SW3       29.99F
$$


CITY           SKY/WX    TMP DP  RH WIND       PRES   REMARKS
BURLINGTON     MOSUNNY   75  61  61 VRB6      29.97S
CEDAR RAPIDS   SUNNY     72  55  55 NE6       29.99S
DES MOINES     MOSUNNY   75  54  47 E6        30.01R
KIRKSVILLE     PTSUNNY   74  58  57 N9        29.99S
OTTUMWA        MOSUNNY   72  59  63 NE8       29.98S
ST LOUIS       MOSUNNY   78  65  63 N9        29.93S HX  80
$$


CITY           SKY/WX    TMP DP  RH WIND       PRES   REMARKS
TERRE HAUTE    CLOUDY    75  66  73 CALM      29.91R
EVANSVILLE     MOSUNNY   79  69  71 CALM      29.88F HAZE    HX  81
INDIANAPOLIS   PTSUNNY   71  61  70 N9        29.90S
LAFAYETTE      MOSUNNY   71  61  70 NE7       29.94R
MADISON        MOSUNNY   71  54  54 SW5       29.99F
MILWAUKEE      PTSUNNY   71  54  54 E7        29.99F
$$





USA.gov is the U.S. government's official web portal to all federal, state and local government web resources and services.